www.pogodaiklimat.ru

Погода и климат >> Архив погоды >> Намибия >> Людериц


ПОГОДА в Людерице

  • Прогноз погоды в Людерице
  • Монитор погоды в Людерице

АРХИВ ПОГОДЫ в Людерице

Время (UTC), дата Ветер
(напр.,м/с)
 
Видим.   Явления Облачность Т
(С)
Тd
(С)
f
(%)
Тe
(С)
Тes
(С)
Комфортность P
(гПа)
Po
(гПа)
Тmin
(С)
Tmax
(С)
R
(мм)
R24
(мм)
S
(см)
15 13.06 Ю 5 н/о н/о +24.4 +8.1 35 +25 +25 комфорт 1020.8 1006.1 +24.4 +26.8
18 13.06 ЮЗ 4 н/о н/о +13.6 +8.9 73 +12 +12 1022.6 1007.3 +13.6 +26.8
21 13.06 В 3 н/о н/о +20.3 -1.9 22 +21 +21 комфорт 1022.9 1008.0 +13.3 +26.8
12 14.06 С 2 н/о н/о +31.9 -3.1 10 +28 +28 жарко 1019.8 1005.5 +13.3 +32.7
15 14.06 ЮЗ 4 н/о н/о +27.4 -2.1 14 +25 +25 комфорт 1019.4 1004.9 +27.4 +32.9
18 14.06 ЮВ 2 н/о н/о +21.0 -3.3 19 +21 +21 комфорт 1020.7 1005.8 +20.6 +32.9
21 14.06 ЮВ 4 н/о н/о +22.0 -3.9 17 +21 +21 комфорт 1020.6 1005.8 +20.6 +32.9
00 15.06 В 5 н/о н/о +19.6 -7.6 15 +19 +19 1020.0 1005.1 +19.0 +32.9
03 15.06 В 4 н/о н/о +21.0 -6.4 15 +21 +21 комфорт 1018.9 1004.1 +18.7 +32.9
06 15.06 Ю 3 н/о н/о +22.3 -6.3 14 +21 +21 комфорт 1019.4 1004.6 +16.8
09 15.06 ЮЗ 2 н/о н/о +27.6 -5.2 11 +25 +25 комфорт 1019.8 1005.3 +16.8 +29.3
12 15.06 ЮЗ 2 н/о н/о +33.1 -3.5 9 +29 +29 жарко 1016.7 1002.5 +16.8 +34.2
18 15.06 ЮВ 3 н/о н/о +23.8 -5.0 14 +22 +22 комфорт 1017.8 1003.1 +22.7 +34.2
21 15.06 В 4 н/о н/о +21.3 -5.3 16 +20 +20 1018.4 1003.6 +21.3 +34.2
00 16.06 ЮВ 5 н/о н/о +21.5 -6.0 15 +20 +20 1017.5 1002.7 +20.6 +34.2
03 16.06 В 2 н/о н/о +18.8 -5.1 19 +19 +19 1016.4 1001.5 +18.5 +34.2
06 16.06 СВ 7 н/о н/о +24.0 -0.1 20 +23 +23 комфорт 1016.2 1001.5 +18.5
09 16.06 СВ 9 н/о н/о +30.0 +0.9 15 +27 +27 жарко 1016.4 1002.0 +18.5 +30.0
12 16.06 СЗ 4 н/о н/о +27.3 +1.9 19 +25 +25 комфорт 1015.9 1001.4 +18.5 +32.3
18 16.06 ЮЗ 2 н/о н/о +21.9 +1.1 25 +21 +21 комфорт 1017.2 1002.4 +21.8 +32.3
21 16.06 ЮВ 2 н/о н/о +19.6 +1.2 29 +20 +20 1018.6 1003.7 +19.6 +32.3
00 17.06 ЮВ 2 н/о н/о +17.8 +1.8 34 +19 +19 1018.2 1003.2 +17.3 +32.3
03 17.06 В 1 н/о н/о +17.6 +1.2 33 +19 +19 1017.2 1002.2 +15.7 +32.3
06 17.06 З 3 н/о н/о +18.3 +1.8 33 +19 +19 1018.3 1003.3 +15.6
09 17.06 ЮЗ 2 н/о н/о +25.7 +2.6 22 +24 +24 комфорт 1020.1 1005.5 +15.6 +25.7
12 17.06 СЗ 3 н/о н/о +31.0 +3.4 17 +29 +29 жарко 1018.3 1003.9 +15.6 +31.3
18 17.06 СВ 1 н/о н/о +21.9 +2.7 28 +22 +22 комфорт 1018.7 1003.9 +21.9 +31.4
21 17.06 ЮВ 3 н/о н/о +20.2 +2.7 31 +21 +21 комфорт 1020.2 1005.3 +19.4 +31.4
00 18.06 В 2 н/о н/о +17.7 +1.3 33 +18 +18 1020.0 1005.0 +17.2 +31.4
03 18.06 В 2 н/о н/о +16.2 -0.3 32 +17 +17 1019.7 1004.6 +14.9 +31.4
06 18.06 В 3 н/о н/о +17.5 +0.7 32 +18 +18 1019.6 1004.6 +14.4
09 18.06 СВ 6 н/о н/о +29.8 +3.2 18 +28 +28 жарко 1020.3 1005.9 +14.4 +29.8
15 18.06 Ю 5 н/о н/о +26.2 +3.0 22 +25 +25 комфорт 1017.8 1003.2 +26.2 +34.9
18 18.06 ЮВ 4 н/о н/о +25.3 +2.3 22 +24 +24 комфорт 1019.5 1004.9 +22.5 +34.9
21 18.06 Ю 2 н/о н/о +19.7 +1.8 30 +21 +21 комфорт 1020.5 1005.6 +19.7 +34.9
00 19.06 В 1 н/о н/о +19.5 +1.6 30 +21 +21 комфорт 1020.1 1005.2 +17.2 +34.9
03 19.06 В 1 н/о н/о +18.1 +1.2 32 +19 +19 1019.5 1004.5 +17.2 +34.9
06 19.06 Ю 1 н/о н/о +16.0 +1.4 37 +17 +17 1020.5 1005.4 +15.8
09 19.06 ЮЗ 3 н/о н/о +26.9 +3.0 21 +25 +25 комфорт 1021.1 1006.5 +15.8 +26.9
12 19.06 штиль 0 н/о н/о +34.9 +3.9 14 +32 +32 жарко 1018.6 1004.4 +15.8 +35.2
15 19.06 Ю 5 н/о н/о +29.2 +3.5 19 +27 +27 жарко 1018.1 1003.7 +29.2 +35.2
18 19.06 Ю 2 н/о н/о +24.2 +2.6 24 +23 +23 комфорт 1019.6 1004.9 +24.1 +35.2
21 19.06 ЮВ 4 н/о н/о +23.2 +2.3 25 +23 +23 комфорт 1020.2 1005.4 +22.3 +35.2
00 20.06 В 5 н/о н/о +22.8 +2.5 26 +22 +22 комфорт 1019.3 1004.5 +22.2 +35.2
03 20.06 СВ 2 н/о н/о +20.2 +1.2 28 +21 +21 комфорт 1018.4 1003.5 +18.5 +35.2
06 20.06 ЮЗ 1 н/о н/о +19.4 +0.5 28 +21 +21 комфорт 1018.3 1003.4 +16.8
09 20.06 СВ 9 н/о н/о +29.9 -0.1 14 +27 +27 жарко 1018.9 1004.5 +16.8 +29.9

 

Местоположение метеостанции Людериц (Намибия): широта -26.63 долгота 15.10 высота над уровнем моря 23 м.

В архиве по умолчанию представлена погода в Людерице за последнюю неделю. Архивные данные за месяц целиком и за предыдущие месяцы, начиная с января 2011 года, Вы можете получить, выбрав интересующий диапазон дат из раскрывающегося списка и нажав кнопку "Ввод!".


*Определитесь, кто Вы:
робот инопланетянин человек

Внимание! Время в таблицах - всемирное. Для получения местного времени необходимо прибавить поправку, которая равна 2 ч.

Смотрите также архив погоды в соседних городах и на ближайших метеорологических станциях:

Погода в Александер-Бее (Южная Африка) (257 км)
Погода в Китмансхупе (Намибия) (301 км)
Погода в Виулсдрифе (Южная Африка) (337 км)
Погода в Порт Ноллоз (Южная Африка) (337 км)
Погода в Аэропорту Walvis Bay (Намибия) (409 км)
Погода в Аэропорту Eros (Намибия) (423 км)
Погода в Спрингбоке (Южная Африка) (435 км)
Погода в Коингнаасе (Южная Африка) (451 км)
Погода в Виндхуке (Намибия) (496 км)
Погода в Пофаддере (Южная Африка) (504 км)

Пояснения к столбцам:

Ветер - указаны скорость ветра в м/с - средняя за 10 мин, порывы в срок и между сроками (в фигурных скобках) и направление, откуда дует ветер: С - северный, СВ - северо-восточный, В - восточный, ЮВ - юго-восточный, Ю - южный, ЮЗ - юго-западный, З - западный, СЗ - северо-западный.
Видимость - горизонтальная дальность видимости в метрах или километрах. При видимости от 1 до 10 км при отсутствии осадков обычно наблюдается дымка, при ухудшении видимости до 1 км и менее - туман. В сухую погоду видимость может ухудшаться дымом, пылью или мглою.
Явления - указаны атмосферные явления, наблюдавшиеся в срок или в последний час перед сроком; фигурными скобками обозначены явления, наблюдавшиеся между сроками (за 1-3 часа до срока); квадратными скобками обозначены град или гололедные отложения с указанием их диаметра в мм.
Облачность - указаны через наклонную черту общая и нижняя облачность в баллах и высота нижней границы облаков в метрах; квадратными скобками обозначены формы облаков: Ci - перистые, Cs - перисто-слоистые, Cc - перисто-кучевые, Ac - высококучевые, As - высокослоистые, Sc - слоисто-кучевые, Ns - слоисто-дождевые, Cu - кучевые, Cb - кучево-дождевые. Подробнее классификацию облаков см. в Атласе облаков (PDF).
T - Температура воздуха - температура, измеренная на высоте 2 м над землей.
Td - Температура точки росы - температура, при понижении до которой содержащийся в воздухе водяной пар достигнет насыщения.
f - Относительная влажность воздуха - влажноcть воздуха, измеренная на высоте 2 м над землей.
Te - Эффективная температура - температура, которую ощущает одетый по сезону человек в тени. Характеристика душности погоды. При расчете учитывается влияние влажности воздуха и скорости ветра на теплоощущения человека.
Tes - Эффективная температура на солнце - температура, которую ощущает человек, с поправкой на солнечный нагрев. Характеристика знойности погоды. Зависит от высоты солнца над горизонтом, облачности и скорости ветра. Ночью, в пасмурную погоду, а также при ветре 12 м/с и более поправка равна нулю.
P - Атмосферное давление - приведенное к уровню моря атмосферное давление.
Po - Атмосферное давление - измеренное на уровне метеостанции атмосферное давление.
Tmin - Минимальная температура - минимум температуры воздуха на высоте 2 м над землей.
Tmax - Максимальная температура - максимум температуры воздуха на высоте 2 м над землей.
R - Количество осадков - Количество выпавших осадков за период времени, мм. При наведении курсора мыши на число - период времени, за который выпало указанное количество осадков.
R24 - Количество осадков - Количество выпавших осадков за 24 часа, мм.
S - Снежный покров - Высота снежного покрова, см. При наведении курсора мыши на число - состояние снежного покрова и степень покрытия местности в баллах.